Погода в Полново

Россия / Новгородская область     57°32′03″N   32°56′53″E
темп.,
°C
ветер,
м/с
пор.,
м/с
влажн.,
%
обл.,
%
осадки,
мм/ч
давл.,
гПа
погр.,
м
4 декабря, сб
сб400:00−4юз51194100 1.6 9941057
03:00−5зюз51293100 2.9 995772
06:00−6з51193100 0.8 998691
09:00−6з51193100 1.4 1001817
12:00−6з51090100 0.3 1004707
15:00−7з4989100 0.5 1006641
18:00−7з3691100 0.1 1008515
21:00−9юз139899 0.2 100980
5 декабря, вс
вс500:00−12ю1110090 0.0 101110
03:00−11в119993 0.1 101237
06:00−9в249696 0.0 1012139
09:00−9всв3694100 0.3 1013226
12:00−9всв3689100 0.3 1015281
15:00−9всв3692100 0.5 1016324
18:00−10всв4893100 0.3 1017326
21:00−11всв4993100 0.5 1019326
6 декабря, пн
пн600:00−12в4992100 0.2 1020315
03:00−12в4993100 0.3 1021302
06:00−12в499298 0.1 1020300
09:00−12в4992100 0.2 1021304
12:00−11в4890100 0.1 1021307
15:00−10в3892100 0.3 1019305
18:00−10в3993100 0.1 1019298
21:00−8в3894100 0.4 1018241
7 декабря, вт
вт700:00−6вюв3895100 0.6 1016263
03:00−5вюв389691 1.1 1014303
06:00−5в2696100 0.5 1013250
09:00−5в1497100 1.1 1012178
12:00−4зсз119484 0.3 1011168
15:00−5зсз369590 0.5 1012320
18:00−10зсз379698 0.1 1014218
21:00−13зсз3897100 0.1 1014212
8 декабря, ср
ср800:00−15з3898100 0.1 1016222
03:00−15з3997100 0.1 1016223
06:00−15з3897100 0.1 1017214
09:00−15з2798100 0.1 1018176
12:00−13зсз3795100 0.1 1020218
15:00−12з2697100 0.1 1020231
18:00−15зсз25100100 0.0 102287
21:00−16зсз12100100 0.1 102347